Date String (YYYY-MM-DD hh:mm:ss) UTC,Instrument flags,Ambient pressure (hPa),Sample flow (lpm),Bypass flow (lpm),Sample temperature (°C),Ambient temperature (°C),ASC tube jacket temperature (°C),LED temperature (°C),Box temperature (°C),Sample RH (%),Span deviation,Mass concentration (μg/m³),Mass concentration (μg/m³),Mass concentration (μg/m³)
DateTimeUTC,F1_M11,P_M11,Q1_M11,Q2_M11,T1_M11,T2_M11,T3_M11,T4_M11,T5_M11,U1_M11,ZSPAN_M11,X0_M11,X2_M11,X1_M11
2022-03-28 06:00:00,,0821.1,5.00,0.00,28.6,27.7,00.0,37.7,30.3,13.4,0002.5,0029.88,0016.49,0014.99
2022-03-28 06:01:00,,0821.1,4.99,0.00,28.6,27.7,00.0,37.7,30.3,13.4,0002.1,0029.88,0016.43,0014.92
2022-03-28 06:02:00,,0821.2,5.01,0.00,28.6,27.7,00.0,37.7,30.4,13.4,0002.2,0029.51,0016.48,0014.93
2022-03-28 06:03:00,,0821.2,5.01,0.00,28.6,27.7,00.0,37.7,30.4,13.4,0003.1,0028.87,0016.54,0014.98
2022-03-28 06:04:00,,0821.3,4.99,0.00,28.6,27.8,00.0,37.7,30.4,13.4,0003.1,0028.05,0016.58,0015.00
2022-03-28 06:05:00,,0821.4,4.99,0.00,28.6,27.8,00.0,37.7,30.4,13.4,0003.0,0028.16,0016.60,0015.00
2022-03-28 06:06:00,,0821.4,5.00,0.00,28.6,27.7,00.0,37.7,30.3,13.2,0003.2,0028.01,0016.40,0014.86
2022-03-28 06:07:00,,0821.2,5.01,0.00,28.6,27.7,00.0,37.7,30.3,12.9,0003.0,0026.75,0016.02,0014.47
2022-03-28 06:08:00,,0821.1,4.99,0.00,28.6,27.7,00.0,37.7,30.4,13.1,0003.2,0027.35,0015.82,0014.24
2022-03-28 06:09:00,,0821.1,5.00,0.00,28.6,27.7,00.0,37.7,30.4,13.3,0003.4,0027.53,0015.73,0014.12
2022-03-28 06:10:00,,0821.2,4.99,0.00,28.6,27.7,00.0,37.7,30.4,13.3,0003.6,0027.07,0015.70,0014.05
2022-03-28 06:11:00,,0821.2,5.02,0.00,28.6,27.7,00.0,37.7,30.4,13.4,0003.8,0026.83,0015.77,0014.08
2022-03-28 06:12:00,,0821.2,5.00,0.00,28.6,27.7,00.0,37.7,30.4,13.5,0003.6,0026.31,0015.89,0014.20
2022-03-28 06:13:00,,0821.2,5.00,0.00,28.6,27.7,00.0,37.7,30.4,13.7,0003.4,0026.96,0016.06,0014.35
2022-03-28 06:14:00,,0821.2,5.00,0.00,28.6,27.8,00.0,37.6,30.4,13.7,0003.1,0027.62,0016.28,0014.51
2022-03-28 06:15:00,,0821.2,4.99,0.00,28.6,27.7,00.0,37.6,30.4,13.2,0003.4,0027.43,0016.22,0014.47
2022-03-28 06:16:00,,0821.2,5.01,0.00,28.6,27.7,00.0,37.6,30.4,13.3,0003.1,0027.35,0016.17,0014.40
2022-03-28 06:17:00,,0821.2,5.00,0.00,28.6,27.7,00.0,37.6,30.3,13.0,0003.1,0027.82,0016.16,0014.36
2022-03-28 06:18:00,,0821.2,5.00,0.00,28.6,27.7,00.0,37.6,30.3,12.7,0003.2,0027.88,0016.22,0014.41
2022-03-28 06:19:00,,0821.2,5.00,0.00,28.6,27.7,00.0,37.6,30.3,13.0,0003.2,0027.29,0016.39,0014.56
2022-03-28 06:20:00,,0821.2,5.00,0.00,28.6,27.7,00.0,37.6,30.3,13.0,0003.4,0027.01,0016.47,0014.61
2022-03-28 06:21:00,,0821.2,5.01,0.00,28.6,27.7,00.0,37.6,30.3,12.6,0003.0,0026.83,0016.31,0014.48
2022-03-28 06:22:00,,0821.2,5.01,0.00,28.6,27.6,00.0,37.6,30.3,12.4,0002.8,0026.19,0015.75,0013.98
2022-03-28 06:23:00,,0821.1,4.99,0.00,28.6,27.6,00.0,37.6,30.3,12.9,0002.5,0025.91,0015.39,0013.64
2022-03-28 06:24:00,,0821.1,4.99,0.00,28.6,27.6,00.0,37.6,30.3,12.7,0002.6,0025.74,0014.99,0013.28
2022-03-28 06:25:00,,0821.1,5.00,0.00,28.6,27.6,00.0,37.6,30.3,12.4,0002.2,0024.01,0014.38,0012.78
2022-03-28 06:26:00,,0821.1,5.01,0.00,28.5,27.6,00.0,37.6,30.3,12.4,0001.8,0023.09,0014.02,0012.42
2022-03-28 06:27:00,,0821.0,4.99,0.00,28.5,27.6,00.0,37.6,30.3,12.5,0002.2,0022.42,0013.66,0012.07
2022-03-28 06:28:00,,0821.0,4.99,0.00,28.5,27.6,00.0,37.6,30.3,12.4,0002.6,0020.92,0013.39,0011.87
2022-03-28 06:29:00,,0820.9,5.01,0.00,28.5,27.6,00.0,37.6,30.3,12.6,0002.4,0021.58,0013.46,0011.90
2022-03-28 06:30:00,,0821.0,5.00,0.00,28.5,27.6,00.0,37.6,30.3,12.9,0002.4,0022.28,0013.51,0011.93
2022-03-28 06:31:00,,0821.0,4.99,0.00,28.5,27.6,00.0,37.6,30.2,13.3,0002.5,0023.58,0013.63,0012.07
2022-03-28 06:32:00,,0821.0,4.99,0.00,28.5,27.6,00.0,37.6,30.2,13.5,0002.9,0025.01,0014.01,0012.42
2022-03-28 06:33:00,,0821.0,5.01,0.00,28.5,27.6,00.0,37.6,30.2,13.5,0003.1,0026.32,0014.75,0013.08
2022-03-28 06:34:00,,0821.0,4.99,0.00,28.5,27.5,00.0,37.5,30.2,13.7,0003.3,0026.71,0015.20,0013.47
2022-03-28 06:35:00,,0820.8,5.00,0.00,28.4,27.5,00.0,37.5,30.2,13.6,0003.4,0026.86,0015.64,0013.89
2022-03-28 06:36:00,,0820.9,5.00,0.00,28.4,27.5,00.0,37.5,30.2,13.0,0003.7,0027.77,0015.90,0014.07
2022-03-28 06:37:00,,0820.9,5.00,0.00,28.4,27.5,00.0,37.5,30.2,12.9,0003.8,0028.30,0016.11,0014.30
2022-03-28 06:38:00,,0820.9,5.00,0.00,28.4,27.6,00.0,37.5,30.2,13.1,0003.8,0030.13,0016.46,0014.65
2022-03-28 06:39:00,,0821.0,4.99,0.00,28.4,27.6,00.0,37.5,30.2,13.1,0003.4,0031.36,0016.82,0014.94
2022-03-28 06:40:00,,0821.0,5.03,0.00,28.4,27.5,00.0,37.5,30.1,13.1,0003.2,0031.02,0016.99,0015.12
2022-03-28 06:41:00,,0820.9,4.99,0.00,28.4,27.5,00.0,37.5,30.1,12.8,0003.0,0031.18,0016.81,0015.01
2022-03-28 06:42:00,,0820.9,5.00,0.00,28.4,27.5,00.0,37.5,30.1,12.7,0002.7,0029.96,0016.56,0014.83
2022-03-28 06:43:00,,0820.8,4.99,0.00,28.4,27.5,00.0,37.5,30.2,12.3,0002.7,0027.96,0016.02,0014.35
2022-03-28 06:44:00,,0820.9,5.01,0.00,28.4,27.5,00.0,37.5,30.2,12.1,0002.7,0026.41,0015.28,0013.69
2022-03-28 06:45:00,,0820.9,5.00,0.00,28.4,27.5,00.0,37.5,30.2,12.1,0002.8,0025.79,0014.73,0013.12
2022-03-28 06:46:00,,0820.9,4.99,0.00,28.4,27.5,00.0,37.5,30.2,12.2,0002.7,0025.23,0014.08,0012.47
2022-03-28 06:47:00,,0820.9,4.99,0.00,28.4,27.5,00.0,37.5,30.2,12.3,0002.7,0024.28,0013.72,0012.14
2022-03-28 06:48:00,,0820.8,5.01,0.00,28.4,27.5,00.0,37.4,30.2,12.3,0002.7,0024.31,0013.46,0011.89
2022-03-28 06:49:00,,0820.8,5.00,0.00,28.4,27.6,00.0,37.5,30.2,12.6,0002.3,0023.15,0013.17,0011.63
2022-03-28 06:50:00,,0820.9,4.98,0.00,28.4,27.6,00.0,37.4,30.2,12.5,0001.9,0023.45,0012.98,0011.44
2022-03-28 06:51:00,,0820.8,4.99,0.00,28.4,27.6,00.0,37.4,30.2,12.6,0001.8,0024.02,0012.87,0011.31
2022-03-28 06:52:00,,0820.8,5.01,0.00,28.5,27.6,00.0,37.5,30.2,13.0,0001.7,0023.82,0013.16,0011.54
2022-03-28 06:53:00,,0820.9,5.00,0.00,28.5,27.6,00.0,37.5,30.2,13.0,0001.5,0024.10,0013.39,0011.77
2022-03-28 06:54:00,,0820.9,4.99,0.00,28.5,27.6,00.0,37.5,30.2,13.1,0001.6,0025.35,0013.84,0012.18
2022-03-28 06:55:00,,0820.8,5.00,0.00,28.5,27.6,00.0,37.5,30.2,13.1,0001.4,0026.27,0014.42,0012.70
2022-03-28 06:56:00,,0820.8,5.00,0.00,28.5,27.6,00.0,37.5,30.3,13.1,0001.4,0027.49,0014.88,0013.21
2022-03-28 06:57:00,,0820.8,5.01,0.00,28.5,27.6,00.0,37.5,30.3,13.1,0002.2,0027.73,0015.30,0013.58
2022-03-28 06:58:00,,0820.8,5.00,0.00,28.5,27.6,00.0,37.5,30.2,13.2,0001.9,0027.73,0015.67,0013.95
2022-03-28 06:59:00,,0820.8,4.99,0.00,28.5,27.5,00.0,37.5,30.2,13.4,0001.4,0028.48,0016.17,0014.44
